Flag for Romania Weather past 2 weeks in Cluj-Napoca, Romania

Now
66 °F

Partly sunny.


Feels Like: 66 °F
Forecast: 53 / 81 °F
Wind: 6 mph from Southwest

Location: Cluj Airport-Napoca

Current Time: Jul 31, 2015 at 5:20:33 PM

Latest Report: Jul 31, 2015 at 5:00 PM


Visibility: N/A

Pressure: 29.98 "Hg

Humidity: 88%

Dew point: 63 °F

Location of Cluj-NapocaLocation

Historic Weather in Cluj-Napoca — Graph

°F

Cluj-Napoca temperature yesterday

Maximum temperature yesterday: 79 °F (at 5:30 PM)
Minimum temperature yesterday: 63 °F (at 5:00 AM)
Average temperature yesterday: 70 °F

Past Weeks' High & Low Weather Summary

 TemperatureHumidityPressure
High93 °F (Jul 23, 4:00 PM)100% (Jul 17, 4:00 AM)30.18 "Hg (Jul 17, 4:00 AM)
Low55 °F (Jul 17, 5:00 AM)27% (Jul 21, 5:00 PM)29.74 "Hg (Jul 27, 5:00 PM)
Average75 °F67%29.95 "Hg
* Reported Jul 16 4:00 PM — Jul 31 4:00 PM, Cluj-Napoca, Weather by CustomWeather, © 2015

Note: Actual official high and low records may vary slightly from our data, if they occured in-between our weather recording intervals... More about our weather records

Advertising

Cluj-Napoca weather history for previous 24 hours

 ConditionsComfort  
Time TempWeatherWind HumidityBarometerVisibility
4:00 PM
Fri, Jul 31
64 °FSprinkles. Overcast.9 mph83%29.98 "HgN/A
3:30 PM70 °FSprinkles. Overcast.15 mph64%29.95 "HgN/A
3:00 PM70 °FPartly sunny.6 mph78%29.95 "HgN/A
2:30 PM70 °FPartly sunny.No wind73%29.95 "HgN/A
2:00 PM70 °FSprinkles. Scattered clouds.3 mph73%29.95 "HgN/A
1:30 PM73 °FSprinkles. Scattered clouds.7 mph50%29.95 "HgN/A
1:00 PM75 °FScattered clouds.8 mph50%29.95 "HgN/A
12:30 PM75 °FScattered clouds.2 mph50%29.95 "HgN/A
12:00 PM73 °FPassing clouds.2 mph53%29.95 "HgN/A
11:30 AM72 °FScattered clouds.5 mph57%29.95 "HgN/A
11:00 AM72 °FPartly sunny.3 mph61%29.95 "HgN/A
10:30 AM73 °FPassing clouds.2 mph53%29.92 "HgN/A
10:00 AM70 °FScattered clouds.7 mph64%29.95 "HgN/A
9:30 AM68 °FPartly sunny.6 mph73%29.95 "HgN/A
9:00 AM66 °FScattered clouds.8 mph78%29.95 "HgN/A
8:30 AM66 °FPartly sunny.3 mph78%29.95 "HgN/A
8:00 AM64 °FPartly sunny.7 mph83%29.95 "HgN/A
7:30 AM64 °FPartly sunny.2 mph83%29.95 "HgN/A
7:00 AM64 °FOvercast.6 mph83%29.95 "HgN/A
6:30 AM64 °FOvercast.2 mph78%29.95 "HgN/A
6:00 AM64 °FOvercast.5 mph78%29.92 "HgN/A
5:30 AM64 °FOvercast.1 mph78%29.92 "HgN/A
5:00 AM64 °FPassing clouds.6 mph78%29.95 "HgN/A
4:00 AM64 °FPassing clouds.6 mph78%29.95 "HgN/A
3:00 AM66 °FPassing clouds.6 mph73%29.95 "HgN/A
2:00 AM66 °FPartly cloudy.8 mph73%29.95 "HgN/A
1:00 AM66 °FPartly cloudy.9 mph73%29.95 "HgN/A
12:00 AM64 °FPassing clouds.8 mph78%29.95 "HgN/A
11:30 PM
Thu, Jul 30
66 °FClear.9 mph73%29.95 "Hg10 mi
11:00 PM66 °FClear.9 mph73%29.95 "Hg10 mi
10:30 PM66 °FClear.9 mph78%29.95 "Hg10 mi
10:00 PM68 °FClear.No wind78%29.95 "Hg10 mi
9:30 PM70 °FSunny.9 mph73%29.92 "Hg10 mi
9:00 PM72 °FSunny.9 mph69%29.92 "Hg10 mi
8:30 PM75 °FSunny.7 mph61%29.89 "Hg10 mi
8:00 PM77 °FSunny.7 mph54%29.89 "Hg10 mi
7:00 PM77 °FScattered clouds.9 mph57%29.89 "HgN/A
6:30 PM77 °FPartly sunny.9 mph57%29.89 "HgN/A
6:00 PM77 °FPartly sunny.8 mph57%29.89 "HgN/A
5:30 PM79 °FPartly sunny.7 mph58%29.89 "HgN/A
5:00 PM77 °FScattered clouds.8 mph61%29.89 "HgN/A
Weather by CustomWeather, © 2015

See weather overviewHow to use our weather pages